Time,TemperatureF,DewpointF,PressureIn,WindDirection,WindDirectionDegrees,WindSpeedMPH,WindSpeedGustMPH,Humidity,HourlyPrecipIn,Conditions,Clouds,dailyrainin,SoftwareType,DateUTC
2013-03-31 00:08:00,51.9,43.0,29.92,SSW,198,0.0,0.0,71,0.00,,,0.00,weatherlink.com 1.10,2013-03-31 04:08:00,
2013-03-31 00:23:00,51.8,43.0,29.91,SSW,198,0.0,0.0,73,0.00,,,0.00,weatherlink.com 1.10,2013-03-31 04:23:00,
2013-03-31 00:38:00,51.4,44.0,29.91,SSW,198,0.0,1.0,75,0.00,,,0.00,weatherlink.com 1.10,2013-03-31 04:38:00,
2013-03-31 00:53:00,51.1,45.0,29.90,SSW,198,0.0,1.0,79,0.00,,,0.00,weatherlink.com 1.10,2013-03-31 04:53:00,
2013-03-31 01:08:00,50.5,46.0,29.89,SSW,198,0.0,0.0,83,0.00,,,0.00,weatherlink.com 1.10,2013-03-31 05:08:00,
2013-03-31 01:23:00,49.9,46.0,29.89,SSW,198,0.0,0.0,85,0.01,,,0.01,weatherlink.com 1.10,2013-03-31 05:23:00,
2013-03-31 01:38:00,49.5,46.0,29.88,SSW,198,0.0,0.0,87,0.02,,,0.02,weatherlink.com 1.10,2013-03-31 05:38:00,
2013-03-31 01:53:00,49.2,46.0,29.88,SSW,198,0.0,0.0,89,0.03,,,0.03,weatherlink.com 1.10,2013-03-31 05:53:00,
2013-03-31 02:08:00,48.9,46.0,29.87,SSW,198,0.0,0.0,90,0.03,,,0.03,weatherlink.com 1.10,2013-03-31 06:08:00,
2013-03-31 02:23:00,48.8,46.0,29.86,SSW,199,0.0,0.0,91,0.02,,,0.03,weatherlink.com 1.10,2013-03-31 06:23:00,
2013-03-31 02:38:00,48.6,46.0,29.86,SSW,198,0.0,1.0,91,0.02,,,0.04,weatherlink.com 1.10,2013-03-31 06:38:00,
2013-03-31 02:53:00,48.5,46.0,29.85,SSW,198,0.0,0.0,92,0.01,,,0.04,weatherlink.com 1.10,2013-03-31 06:53:00,
2013-03-31 03:08:00,48.5,47.0,29.84,SSW,198,0.0,0.0,93,0.02,,,0.05,weatherlink.com 1.10,2013-03-31 07:08:00,
2013-03-31 03:23:00,48.3,46.0,29.84,SSW,209,0.0,0.0,93,0.02,,,0.05,weatherlink.com 1.10,2013-03-31 07:23:00,
2013-03-31 03:38:00,48.2,46.0,29.83,SSW,208,0.0,0.0,93,0.01,,,0.05,weatherlink.com 1.10,2013-03-31 07:38:00,
2013-03-31 03:53:00,48.2,47.0,29.82,SSW,209,0.0,0.0,94,0.01,,,0.05,weatherlink.com 1.10,2013-03-31 07:53:00,
2013-03-31 04:08:00,48.3,47.0,29.82,SSW,208,0.0,0.0,94,0.00,,,0.05,weatherlink.com 1.10,2013-03-31 08:08:00,
2013-03-31 04:23:00,48.4,47.0,29.81,SSW,208,0.0,0.0,94,0.00,,,0.05,weatherlink.com 1.10,2013-03-31 08:23:00,
2013-03-31 04:38:00,48.5,47.0,29.81,SSW,208,0.0,1.0,95,0.00,,,0.05,weatherlink.com 1.10,2013-03-31 08:38:00,
2013-03-31 04:53:00,48.4,47.0,29.81,SSW,209,0.0,0.0,95,0.00,,,0.05,weatherlink.com 1.10,2013-03-31 08:53:00,
2013-03-31 05:08:00,48.4,47.0,29.81,WNW,295,0.0,2.0,95,0.00,,,0.05,weatherlink.com 1.10,2013-03-31 09:08:00,
2013-03-31 05:23:00,48.2,47.0,29.81,NW,323,0.0,1.0,95,0.00,,,0.05,weatherlink.com 1.10,2013-03-31 09:23:00,
2013-03-31 05:38:00,48.1,47.0,29.80,NW,306,0.0,0.0,95,0.01,,,0.06,weatherlink.com 1.10,2013-03-31 09:38:00,
2013-03-31 05:53:00,48.0,47.0,29.80,NW,312,0.0,0.0,95,0.01,,,0.06,weatherlink.com 1.10,2013-03-31 09:53:00,
2013-03-31 06:08:00,47.9,46.0,29.80,NNW,342,0.0,2.0,94,0.01,,,0.06,weatherlink.com 1.10,2013-03-31 10:08:00,
2013-03-31 06:23:00,48.0,47.0,29.81,NNW,342,0.0,0.0,95,0.01,,,0.06,weatherlink.com 1.10,2013-03-31 10:23:00,
2013-03-31 06:40:00,48.0,47.0,29.81,NNW,340,0.0,0.0,95,0.00,,,0.06,weatherlink.com 1.10,2013-03-31 10:40:00,
2013-03-31 06:53:00,48.1,47.0,29.81,NNW,340,0.0,0.0,95,0.00,,,0.06,weatherlink.com 1.10,2013-03-31 10:53:00,
2013-03-31 07:08:00,48.1,47.0,29.82,WNW,291,0.0,0.0,95,0.01,,,0.07,weatherlink.com 1.10,2013-03-31 11:08:00,
2013-03-31 07:23:00,48.0,47.0,29.82,West,281,0.0,1.0,95,0.01,,,0.07,weatherlink.com 1.10,2013-03-31 11:23:00,
2013-03-31 07:38:00,47.9,47.0,29.82,West,276,0.0,1.0,95,0.01,,,0.07,weatherlink.com 1.10,2013-03-31 11:38:00,
2013-03-31 07:53:00,47.7,46.0,29.83,NW,312,0.0,4.0,95,0.01,,,0.07,weatherlink.com 1.10,2013-03-31 11:53:00,
2013-03-31 08:08:00,47.7,46.0,29.84,WNW,293,1.0,3.0,95,0.00,,,0.07,weatherlink.com 1.10,2013-03-31 12:08:00,
2013-03-31 08:23:00,47.6,46.0,29.84,WNW,291,0.0,3.0,95,0.00,,,0.07,weatherlink.com 1.10,2013-03-31 12:23:00,
2013-03-31 08:39:00,47.7,46.0,29.84,WNW,283,0.0,3.0,95,0.00,,,0.07,weatherlink.com 1.10,2013-03-31 12:39:00,
2013-03-31 08:54:00,47.7,46.0,29.85,WNW,302,2.0,5.0,95,0.00,,,0.07,weatherlink.com 1.10,2013-03-31 12:54:00,
2013-03-31 09:09:00,47.8,47.0,29.84,WNW,291,3.0,5.0,95,0.00,,,0.07,weatherlink.com 1.10,2013-03-31 13:09:00,
2013-03-31 09:24:00,48.0,46.0,29.85,WNW,285,0.0,4.0,94,0.00,,,0.07,weatherlink.com 1.10,2013-03-31 13:24:00,
2013-03-31 09:39:00,48.3,47.0,29.85,WSW,246,2.0,3.0,94,0.00,,,0.07,weatherlink.com 1.10,2013-03-31 13:39:00,
2013-03-31 09:54:00,48.6,47.0,29.86,West,267,0.0,4.0,94,0.00,,,0.07,weatherlink.com 1.10,2013-03-31 13:54:00,
2013-03-31 10:09:00,49.0,47.0,29.86,South,190,1.0,6.0,93,0.00,,,0.07,weatherlink.com 1.10,2013-03-31 14:09:00,
2013-03-31 10:45:00,50.2,47.0,29.86,NW,307,5.0,11.0,90,0.00,,,0.07,weatherlink.com 1.10,2013-03-31 14:45:00,
2013-03-31 10:54:00,50.4,48.0,29.86,WSW,252,2.0,7.0,90,0.00,,,0.07,weatherlink.com 1.10,2013-03-31 14:54:00,
2013-03-31 11:09:00,50.2,47.0,29.86,WSW,245,1.0,8.0,89,0.00,,,0.07,weatherlink.com 1.10,2013-03-31 15:09:00,
2013-03-31 11:24:00,50.5,47.0,29.86,NW,309,4.0,8.0,89,0.00,,,0.07,weatherlink.com 1.10,2013-03-31 15:24:00,
2013-03-31 11:39:00,50.8,48.0,29.86,West,265,3.0,8.0,89,0.00,,,0.07,weatherlink.com 1.10,2013-03-31 15:39:00,
2013-03-31 11:54:00,51.5,48.0,29.87,WSW,246,5.0,9.0,87,0.00,,,0.07,weatherlink.com 1.10,2013-03-31 15:54:00,
2013-03-31 12:09:00,52.1,48.0,29.88,WNW,293,1.0,7.0,85,0.00,,,0.00,weatherlink.com 1.10,2013-03-31 16:09:00,
2013-03-31 12:24:00,52.1,47.0,29.87,WNW,286,5.0,9.0,84,0.00,,,0.00,weatherlink.com 1.10,2013-03-31 16:24:00,
2013-03-31 12:39:00,52.6,48.0,29.87,WNW,291,1.0,6.0,84,0.00,,,0.00,weatherlink.com 1.10,2013-03-31 16:39:00,
2013-03-31 12:54:00,52.6,47.0,29.88,WNW,284,2.0,9.0,82,0.00,,,0.00,weatherlink.com 1.10,2013-03-31 16:54:00,
2013-03-31 13:10:00,52.4,47.0,29.88,SW,215,0.0,10.0,83,0.00,,,0.00,weatherlink.com 1.10,2013-03-31 17:10:00,
2013-03-31 13:24:00,52.7,48.0,29.87,NW,326,3.0,7.0,83,0.00,,,0.00,weatherlink.com 1.10,2013-03-31 17:24:00,
2013-03-31 13:39:00,52.4,47.0,29.87,WSW,252,5.0,12.0,83,0.00,,,0.00,weatherlink.com 1.10,2013-03-31 17:39:00,
2013-03-31 13:54:00,52.2,48.0,29.86,WNW,284,1.0,7.0,84,0.00,,,0.00,weatherlink.com 1.10,2013-03-31 17:54:00,
2013-03-31 14:09:00,53.7,48.0,29.85,WSW,248,4.0,8.0,82,0.00,,,0.00,weatherlink.com 1.10,2013-03-31 18:09:00,
2013-03-31 14:24:00,54.6,49.0,29.85,West,262,2.0,11.0,80,0.00,,,0.00,weatherlink.com 1.10,2013-03-31 18:24:00,
2013-03-31 14:39:00,54.6,48.0,29.84,WSW,255,4.0,10.0,78,0.00,,,0.00,weatherlink.com 1.10,2013-03-31 18:39:00,
2013-03-31 14:54:00,55.8,48.0,29.83,WNW,300,4.0,10.0,76,0.00,,,0.00,weatherlink.com 1.10,2013-03-31 18:54:00,
2013-03-31 15:09:00,57.0,48.0,29.83,WSW,245,8.0,11.0,73,0.00,,,0.00,weatherlink.com 1.10,2013-03-31 19:09:00,
2013-03-31 15:24:00,57.2,48.0,29.82,SW,231,6.0,9.0,72,0.00,,,0.00,weatherlink.com 1.10,2013-03-31 19:24:00,
2013-03-31 15:39:00,57.1,48.0,29.82,NW,314,6.0,9.0,71,0.00,,,0.00,weatherlink.com 1.10,2013-03-31 19:39:00,
2013-03-31 15:54:00,58.6,48.0,29.82,WNW,290,3.0,11.0,67,0.00,,,0.00,weatherlink.com 1.10,2013-03-31 19:54:00,
2013-03-31 16:09:00,59.5,46.0,29.81,North,360,3.0,13.0,61,0.00,,,0.00,weatherlink.com 1.10,2013-03-31 20:09:00,
2013-03-31 16:24:00,60.6,46.0,29.80,WSW,251,1.0,9.0,60,0.00,,,0.00,weatherlink.com 1.10,2013-03-31 20:24:00,
2013-03-31 16:40:00,59.8,46.0,29.80,ENE,70,1.0,12.0,61,0.00,,,0.00,weatherlink.com 1.10,2013-03-31 20:40:00,
2013-03-31 16:55:00,61.5,44.0,29.81,WNW,294,5.0,12.0,54,0.00,,,0.00,weatherlink.com 1.10,2013-03-31 20:55:00,
2013-03-31 17:10:00,60.8,45.0,29.81,WNW,290,2.0,12.0,56,0.00,,,0.00,weatherlink.com 1.10,2013-03-31 21:10:00,
2013-03-31 17:25:00,61.3,45.0,29.80,NNW,329,4.0,14.0,55,0.00,,,0.00,weatherlink.com 1.10,2013-03-31 21:25:00,
2013-03-31 17:40:00,61.4,45.0,29.80,NNW,335,2.0,8.0,55,0.00,,,0.00,weatherlink.com 1.10,2013-03-31 21:40:00,
2013-03-31 17:55:00,61.8,45.0,29.81,WNW,295,6.0,10.0,54,0.00,,,0.00,weatherlink.com 1.10,2013-03-31 21:55:00,
2013-03-31 18:10:00,61.7,45.0,29.81,SSW,197,6.0,11.0,54,0.00,,,0.00,weatherlink.com 1.10,2013-03-31 22:10:00,
2013-03-31 18:25:00,60.0,44.0,29.81,WNW,293,2.0,10.0,57,0.00,,,0.00,weatherlink.com 1.10,2013-03-31 22:25:00,
2013-03-31 18:40:00,60.0,44.0,29.82,WNW,288,4.0,10.0,57,0.00,,,0.00,weatherlink.com 1.10,2013-03-31 22:40:00,
2013-03-31 18:55:00,60.0,44.0,29.82,NNW,330,1.0,6.0,57,0.00,,,0.00,weatherlink.com 1.10,2013-03-31 22:55:00,
2013-03-31 19:10:00,59.5,44.0,29.82,West,271,1.0,6.0,58,0.00,,,0.00,weatherlink.com 1.10,2013-03-31 23:10:00,
2013-03-31 19:25:00,59.9,44.0,29.82,WNW,290,2.0,6.0,57,0.00,,,0.00,weatherlink.com 1.10,2013-03-31 23:25:00,
2013-03-31 19:55:00,58.3,45.0,29.82,NE,55,0.0,2.0,61,0.00,,,0.00,weatherlink.com 1.10,2013-03-31 23:55:00,
2013-03-31 20:10:00,57.1,44.0,29.81,SSW,208,1.0,4.0,63,0.00,,,0.00,weatherlink.com 1.10,2013-04-01 00:10:00,
2013-03-31 20:25:00,56.1,44.0,29.81,SW,236,1.0,3.0,65,0.00,,,0.00,weatherlink.com 1.10,2013-04-01 00:25:00,
2013-03-31 20:40:00,54.5,44.0,29.81,SW,229,0.0,2.0,68,0.00,,,0.00,weatherlink.com 1.10,2013-04-01 00:40:00,
2013-03-31 20:55:00,53.2,44.0,29.82,West,269,0.0,2.0,71,0.00,,,0.00,weatherlink.com 1.10,2013-04-01 00:55:00,
2013-03-31 21:10:00,52.5,44.0,29.82,WSW,238,0.0,1.0,72,0.00,,,0.00,weatherlink.com 1.10,2013-04-01 01:10:00,
2013-03-31 21:25:00,52.8,44.0,29.82,West,275,0.0,4.0,72,0.00,,,0.00,weatherlink.com 1.10,2013-04-01 01:25:00,
2013-03-31 21:40:00,53.6,44.0,29.82,West,271,1.0,5.0,71,0.00,,,0.00,weatherlink.com 1.10,2013-04-01 01:40:00,
2013-03-31 21:55:00,54.1,45.0,29.82,WNW,287,1.0,3.0,70,0.00,,,0.00,weatherlink.com 1.10,2013-04-01 01:55:00,
2013-03-31 22:10:00,54.1,45.0,29.82,WNW,285,2.0,5.0,70,0.00,,,0.00,weatherlink.com 1.10,2013-04-01 02:10:00,
2013-03-31 22:25:00,54.3,44.0,29.82,West,273,1.0,8.0,69,0.00,,,0.00,weatherlink.com 1.10,2013-04-01 02:25:00,
2013-03-31 22:40:00,53.4,44.0,29.82,WSW,253,0.0,1.0,71,0.00,,,0.00,weatherlink.com 1.10,2013-04-01 02:40:00,
2013-03-31 22:55:00,54.1,45.0,29.83,West,263,0.0,9.0,70,0.00,,,0.00,weatherlink.com 1.10,2013-04-01 02:55:00,
2013-03-31 23:10:00,53.6,44.0,29.83,SW,224,2.0,6.0,71,0.00,,,0.00,weatherlink.com 1.10,2013-04-01 03:10:00,
2013-03-31 23:25:00,52.3,44.0,29.82,West,262,0.0,2.0,73,0.00,,,0.00,weatherlink.com 1.10,2013-04-01 03:25:00,
2013-03-31 23:40:00,51.4,44.0,29.82,West,273,0.0,4.0,75,0.00,,,0.00,weatherlink.com 1.10,2013-04-01 03:40:00,
2013-03-31 23:55:00,50.8,44.0,29.82,SW,233,0.0,3.0,76,0.00,,,0.00,weatherlink.com 1.10,2013-04-01 03:55:00,